This is the latest recevied weather packets stored in our database for station/object DL8JF-13. If no packets are shown the sender has not sent any weather packets the latest 10 day(s).
| Time | Temp. | Humidity | Pressure | Rain* | Wind** | Luminosity | Snow |
|---|---|---|---|---|---|---|---|
| 1778203133 | 4.44° C | 72% | 1013.5 hPa | 0 mm | - | - | - |
| 1778202229 | 5° C | 72% | 1013.7 hPa | 0 mm | - | - | - |
| 1778201333 | 5° C | 72% | 1013.5 hPa | 0 mm | - | - | - |
| 1778200430 | 5° C | 71% | 1013.7 hPa | 0 mm | - | - | - |
| 1778199530 | 5° C | 70% | 1013.7 hPa | 0 mm | - | - | - |
| 1778198630 | 5.56° C | 70% | 1013.6 hPa | 0 mm | - | - | - |
| 1778197730 | 5.56° C | 69% | 1013.6 hPa | 0 mm | - | - | - |
| 1778196832 | 6.11° C | 69% | 1013.4 hPa | 0 mm | - | - | - |
| 1778195933 | 6.11° C | 66% | 1013.4 hPa | 0 mm | - | - | - |
| 1778195032 | 6.67° C | 65% | 1013.4 hPa | 0 mm | - | - | - |
| 1778194129 | 6.67° C | 65% | 1013.5 hPa | 0 mm | - | - | - |
| 1778193232 | 7.22° C | 65% | 1013.3 hPa | 0 mm | - | - | - |
| 1778192333 | 7.22° C | 64% | 1013.3 hPa | 0 mm | - | - | - |
| 1778191430 | 7.78° C | 63% | 1018.9 hPa | 0 mm | - | - | - |
| 1778190529 | 7.78° C | 63% | 1018.3 hPa | 0 mm | - | - | - |
| 1778189630 | 8.33° C | 61% | 1017.9 hPa | 0 mm | - | - | - |
| 1778188729 | 8.89° C | 61% | 1017.9 hPa | 0 mm | - | - | - |
| 1778187829 | 8.89° C | 60% | 1017.3 hPa | 0 mm | - | - | - |
| 1778186930 | 9.44° C | 59% | 1016.8 hPa | 0 mm | - | - | - |
| 1778186029 | 9.44° C | 58% | 1016 hPa | 0 mm | - | - | - |
| 1778185132 | 10° C | 56% | 1016 hPa | 0 mm | - | - | - |
| 1778184229 | 10.56° C | 55% | 1015.6 hPa | 0 mm | - | - | - |
| 1778183332 | 10.56° C | 55% | 1015 hPa | 0 mm | - | - | - |
| 1778182430 | 10.56° C | 54% | 1014.1 hPa | 0 mm | - | - | - |
| 1778181532 | 11.11° C | 53% | 1014.1 hPa | 0 mm | - | - | - |
* Rain latest hour (hover to see other rain measurements)
** Current wind speed in m/s (hover to see current wind gust speed)